User: anonymous   Login
Location: Bambrugge
(50.9212°N, 3.9299°E)
Time: 20:27:42
(UTC+00:00)
Language:

Cosmos 1892 - Orbit

View from above orbital plane
View from above orbital plane
View from above satellite
View from above satellite

Ground track
Ground track

The orbit data is extracted from the following two-line orbital elements,

1 18421U 87088A   24197.56989565  .00015891  00000-0  45836-3 0  9996
2 18421  82.4907 228.7279 0008686 245.7165 114.3171 15.35540997 11023
Epoch (UTC): 15 July 2024 13:40:38
Eccentricity: 0.0008686
inclination: 82.4907°
perigee height: 453 km
apogee height: 465 km
right ascension of ascending node: 228.7279°
argument of perigee: 245.7165°
revolutions per day: 15.35540997
mean anomaly at epoch: 114.3171°
orbit number at epoch: 1102

The dashed part of the orbit path shows where the satellite is in the earth's shadow,  

DLR